• In Portugal
  • List of Countries
  • For 7 days
  • Water Temperature
  • Satellite Maps
  • Weather Map
  • Weather Widgets
  • user-avatar
    Login

    Hourly Weather Chakhansur

    Today, 23 November, Thursday

    Time Temperature Precipitation Wind Pressure Humidity
    00:00 +17°C° 0 mm 4 mps 718 mmHg 12%
    01:00 +17°C° 0 mm 4 mps 718 mmHg 12%
    02:00 +16°C° 0 mm 3 mps 717 mmHg 12%
    03:00 +16°C° 0 mm 3 mps 717 mmHg 12%
    04:00 +16°C° 0 mm 3 mps 717 mmHg 13%
    05:00 +16°C° 0 mm 3 mps 717 mmHg 13%
    06:00 +14°C° 0 mm 3 mps 717 mmHg 13%
    07:00 +14°C° 0 mm 3 mps 717 mmHg 13%
    08:00 +17°C° 0 mm 3 mps 718 mmHg 11%
    09:00 +19°C° 0 mm 3 mps 718 mmHg 10%
    10:00 +21°C° 0 mm 3 mps 719 mmHg 8%
    11:00 +23°C° 0 mm 2 mps 718 mmHg 7%
    12:00 +24°C° 0 mm 2 mps 718 mmHg 7%
    13:00 +25°C° 0 mm 2 mps 717 mmHg 6%
    14:00 +25°C° 0 mm 2 mps 717 mmHg 6%
    15:00 +25°C° 0 mm 1 mps 717 mmHg 6%
    16:00 +25°C° 0 mm 1 mps 717 mmHg 7%
    17:00 +24°C° 0 mm 1 mps 717 mmHg 7%
    18:00 +22°C° 0 mm 1 mps 717 mmHg 8%
    19:00 +21°C° 0 mm 1 mps 717 mmHg 9%
    20:00 +21°C° 0 mm 1 mps 717 mmHg 9%
    21:00 +21°C° 0 mm 1 mps 717 mmHg 9%
    22:00 +19°C° 0 mm 2 mps 717 mmHg 10%
    23:00 +19°C° 0 mm 2 mps 717 mmHg 10%

    Tomorrow, 24 November, Friday

    Time Temperature Precipitation Wind Pressure Humidity
    00:00 +18°C° 0 mm 2 mps 717 mmHg 10%
    01:00 +18°C° 0 mm 2 mps 716 mmHg 10%
    02:00 +18°C° 0 mm 2 mps 716 mmHg 10%
    03:00 +18°C° 0 mm 2 mps 716 mmHg 11%
    04:00 +18°C° 0 mm 3 mps 716 mmHg 11%
    05:00 +18°C° 0 mm 3 mps 717 mmHg 12%
    06:00 +18°C° 0 mm 3 mps 717 mmHg 13%
    07:00 +19°C° 0 mm 3 mps 717 mmHg 14%
    08:00 +20°C° 0 mm 3 mps 718 mmHg 15%
    09:00 +22°C° 0 mm 3 mps 718 mmHg 15%
    10:00 +24°C° 0 mm 3 mps 719 mmHg 16%
    11:00 +25°C° 0 mm 2 mps 719 mmHg 17%
    12:00 +26°C° 0 mm 2 mps 718 mmHg 19%
    13:00 +27°C° 0 mm 2 mps 718 mmHg 21%
    14:00 +27°C° 0 mm 2 mps 717 mmHg 22%
    15:00 +27°C° 0 mm 2 mps 717 mmHg 24%
    16:00 +27°C° 0 mm 2 mps 717 mmHg 25%
    17:00 +26°C° 0 mm 3 mps 717 mmHg 26%
    18:00 +25°C° 0 mm 4 mps 717 mmHg 27%
    19:00 +22°C° 0 mm 5 mps 717 mmHg 27%
    20:00 +22°C° 0 mm 5 mps 717 mmHg 25%
    21:00 +22°C° 0 mm 5 mps 717 mmHg 23%
    22:00 +22°C° 0 mm 5 mps 717 mmHg 20%
    23:00 +22°C° 0 mm 5 mps 717 mmHg 21%

    Day after tomorrow, 25 November, Saturday

    Time Temperature Precipitation Wind Pressure Humidity
    00:00 +21°C° 0 mm 4 mps 717 mmHg 22%
    01:00 +21°C° 0 mm 3 mps 717 mmHg 22%
    02:00 +20°C° 0 mm 3 mps 717 mmHg 26%
    03:00 +20°C° 0 mm 3 mps 716 mmHg 29%
    04:00 +19°C° 0 mm 3 mps 716 mmHg 33%
    05:00 +19°C° 0 mm 3 mps 717 mmHg 34%
    06:00 +18°C° 0 mm 3 mps 718 mmHg 35%
    07:00 +18°C° 0 mm 3 mps 718 mmHg 36%
    08:00 +19°C° 0 mm 3 mps 719 mmHg 33%
    09:00 +21°C° 0 mm 4 mps 720 mmHg 29%
    10:00 +23°C° 0 mm 4 mps 721 mmHg 25%
    11:00 +23°C° 0 mm 5 mps 720 mmHg 24%
    12:00 +25°C° 0 mm 5 mps 720 mmHg 23%
    13:00 +26°C° 0 mm 6 mps 720 mmHg 21%
    14:00 +26°C° 0 mm 6 mps 720 mmHg 21%
    15:00 +25°C° 0 mm 5 mps 720 mmHg 21%
    16:00 +25°C° 0 mm 5 mps 720 mmHg 20%
    17:00 +23°C° 0 mm 4 mps 721 mmHg 22%
    18:00 +22°C° 0 mm 4 mps 721 mmHg 23%
    19:00 +20°C° 0 mm 3 mps 722 mmHg 25%
    20:00 +20°C° 0 mm 3 mps 722 mmHg 25%
    21:00 +19°C° 0 mm 3 mps 722 mmHg 25%
    22:00 +18°C° 0 mm 3 mps 723 mmHg 26%
    23:00 +18°C° 0 mm 3 mps 723 mmHg 25%

    26 November, Sunday

    Time Temperature Precipitation Wind Pressure Humidity
    00:00 +17°C° 0 mm 3 mps 723 mmHg 25%
    01:00 +17°C° 0 mm 4 mps 723 mmHg 25%
    02:00 +15°C° 0 mm 4 mps 723 mmHg 24%
    03:00 +15°C° 0 mm 4 mps 723 mmHg 23%
    04:00 +14°C° 0 mm 4 mps 723 mmHg 22%
    05:00 +14°C° 0 mm 4 mps 723 mmHg 22%
    06:00 +13°C° 0 mm 4 mps 724 mmHg 21%
    07:00 +13°C° 0 mm 3 mps 724 mmHg 21%
    08:00 +15°C° 0 mm 4 mps 725 mmHg 19%
    09:00 +18°C° 0 mm 4 mps 725 mmHg 16%
    10:00 +20°C° 0 mm 4 mps 726 mmHg 14%
    11:00 +21°C° 0 mm 4 mps 725 mmHg 13%
    12:00 +22°C° 0 mm 4 mps 725 mmHg 11%
    13:00 +23°C° 0 mm 4 mps 724 mmHg 10%
    14:00 +23°C° 0 mm 4 mps 724 mmHg 10%
    15:00 +23°C° 0 mm 4 mps 724 mmHg 10%
    16:00 +22°C° 0 mm 3 mps 724 mmHg 9%
    17:00 +21°C° 0 mm 3 mps 724 mmHg 11%
    18:00 +20°C° 0 mm 3 mps 724 mmHg 12%
    19:00 +18°C° 0 mm 3 mps 724 mmHg 13%
    20:00 +18°C° 0 mm 3 mps 724 mmHg 15%
    21:00 +17°C° 0 mm 3 mps 724 mmHg 17%
    22:00 +15°C° 0 mm 4 mps 724 mmHg 19%
    23:00 +15°C° 0 mm 4 mps 724 mmHg 21%

    27 November, Monday

    Time Temperature Precipitation Wind Pressure Humidity
    00:00 +14°C° 0 mm 3 mps 724 mmHg 22%
    01:00 +13°C° 0 mm 3 mps 723 mmHg 24%
    02:00 +13°C° 0 mm 3 mps 723 mmHg 25%
    03:00 +12°C° 0 mm 3 mps 723 mmHg 26%
    04:00 +12°C° 0 mm 3 mps 722 mmHg 27%
    05:00 +12°C° 0 mm 3 mps 723 mmHg 27%
    06:00 +13°C° 0 mm 2 mps 723 mmHg 28%
    07:00 +12°C° 0 mm 2 mps 723 mmHg 28%
    08:00 +14°C° 0 mm 2 mps 723 mmHg 25%
    09:00 +16°C° 0 mm 2 mps 724 mmHg 22%
    10:00 +18°C° 0 mm 2 mps 724 mmHg 19%
    11:00 +19°C° 0 mm 2 mps 723 mmHg 17%
    12:00 +20°C° 0 mm 2 mps 723 mmHg 16%
    13:00 +21°C° 0 mm 2 mps 722 mmHg 14%
    14:00 +22°C° 0 mm 1 mps 722 mmHg 14%
    15:00 +22°C° 0 mm 1 mps 721 mmHg 14%
    16:00 +22°C° 0 mm 1 mps 721 mmHg 14%
    17:00 +21°C° 0 mm 1 mps 721 mmHg 16%
    18:00 +19°C° 0 mm 1 mps 721 mmHg 17%
    19:00 +16°C° 0 mm 0 mps 721 mmHg 19%
    20:00 +15°C° 0 mm 0 mps 721 mmHg 20%
    21:00 +15°C° 0 mm 0 mps 721 mmHg 20%
    22:00 +14°C° 0 mm 0 mps 721 mmHg 21%
    23:00 +15°C° 0 mm 1 mps 721 mmHg 22%

    28 November, Tuesday

    Time Temperature Precipitation Wind Pressure Humidity
    00:00 +15°C° 0 mm 1 mps 720 mmHg 22%
    01:00 +14°C° 0 mm 1 mps 720 mmHg 23%
    02:00 +14°C° 0 mm 1 mps 720 mmHg 23%
    03:00 +14°C° 0 mm 1 mps 719 mmHg 24%
    04:00 +14°C° 0 mm 1 mps 719 mmHg 24%
    05:00 +13°C° 0 mm 1 mps 719 mmHg 24%
    06:00 +13°C° 0 mm 1 mps 720 mmHg 24%
    07:00 +13°C° 0 mm 1 mps 720 mmHg 24%
    08:00 +15°C° 0 mm 1 mps 720 mmHg 21%
    09:00 +17°C° 0 mm 0 mps 721 mmHg 18%
    10:00 +19°C° 0 mm 0 mps 721 mmHg 15%
    11:00 +20°C° 0 mm 0 mps 720 mmHg 14%
    12:00 +21°C° 0 mm 0 mps 720 mmHg 13%
    13:00 +21°C° 0 mm 0 mps 719 mmHg 12%
    14:00 +23°C° 0 mm 1 mps 719 mmHg 12%
    15:00 +23°C° 0 mm 1 mps 719 mmHg 12%
    16:00 +23°C° 0 mm 1 mps 719 mmHg 12%
    17:00 +21°C° 0 mm 2 mps 719 mmHg 13%
    18:00 +20°C° 0 mm 2 mps 719 mmHg 15%
    19:00 +19°C° 0 mm 2 mps 719 mmHg 16%
    20:00 +18°C° 0 mm 2 mps 719 mmHg 16%
    21:00 +18°C° 0 mm 1 mps 719 mmHg 17%
    22:00 +18°C° 0 mm 1 mps 719 mmHg 17%
    23:00 +16°C° 0 mm 1 mps 719 mmHg 18%
    Show more